Flag for Germany Weather past 2 weeks in Schwerin, Mecklenburg-Western Pomerania, Germany

Now
41 °F

Overcast.


Feels Like: 36 °F
Forecast: 44 / 51 °F
Wind: 8 mph from Southwest

Location: Schwerin

Current Time: Dec 21, 2014 at 12:54:45 PM

Latest Report: Dec 21, 2014 at 12:00 PM


Visibility: 8 mi

Pressure: 30.16 "Hg

Humidity: 87%

Dew point: 38 °F

Location of SchwerinLocation

Historic Weather in Schwerin — Graph

°F

Schwerin temperature yesterday

Maximum temperature yesterday: 43 °F (at 9:00 AM)
Minimum temperature yesterday: 34 °F (at 11:00 AM)
Average temperature yesterday: 39 °F

Past Weeks' High & Low Weather Summary

 TemperatureHumidityPressure
High52 °F (Dec 18, 11:00 PM)100% (Dec 6, 7:00 PM)30.32 "Hg (Dec 6, 7:00 PM)
Low31 °F (Dec 7, 12:00 AM)75% (Dec 20, 9:00 AM)29.21 "Hg (Dec 12, 3:00 PM)
Average39 °F90%29.82 "Hg
* Reported Dec 6 11:00 AM — Dec 21 11:00 AM, Schwerin, Weather by CustomWeather, © 2014

Note: Actual official high and low records may vary slightly from our data, if they occured in-between our weather recording intervals... More about our weather records

Advertising

Schwerin weather history for previous 24 hours

 ConditionsComfort  
Time TempWeatherWind HumidityBarometerVisibility
11:00 AM
Dec 21
40 °FPartly sunny.7 mph89%30.17 "Hg7 mi
9:00 AM38 °FSunny.7 mph90%30.17 "Hg10 mi
8:00 AM40 °FOvercast.7 mph87%30.16 "Hg12 mi
7:00 AM39 °FPassing clouds.8 mph87%30.14 "Hg11 mi
6:00 AM39 °FPassing clouds.7 mph86%30.11 "Hg12 mi
5:00 AM40 °FPassing clouds.7 mph85%30.11 "Hg14 mi
3:00 AM41 °FPassing clouds.9 mph82%30.04 "Hg14 mi
2:00 AM40 °FPassing clouds.9 mph85%30.00 "Hg16 mi
1:00 AM40 °FPassing clouds.9 mph84%29.97 "Hg17 mi
12:00 AM39 °FPassing clouds.9 mph85%29.94 "Hg22 mi
11:00 PM
Dec 20
40 °FOvercast.10 mph80%29.91 "Hg22 mi
9:00 PM39 °FLight freezing rain. Passing clouds.9 mph79%29.85 "Hg8 mi
8:00 PM39 °FPassing clouds.10 mph80%29.82 "Hg22 mi
7:00 PM40 °FOvercast.9 mph78%29.77 "Hg22 mi
6:00 PM40 °FOvercast.9 mph79%29.72 "Hg17 mi
5:00 PM40 °FPassing clouds.10 mph83%29.69 "Hg16 mi
4:00 PM39 °FOvercast.12 mph89%29.68 "Hg25 mi
3:00 PM38 °FLight rain. Partly sunny.13 mph90%29.70 "Hg13 mi
2:00 PM36 °FPartly sunny.9 mph91%29.70 "Hg37 mi
1:00 PM37 °FLight rain. Partly sunny.12 mph88%29.72 "Hg28 mi
12:00 PM35 °FLight rain. Partly sunny.10 mph92%29.73 "Hg9 mi
Weather by CustomWeather, © 2014

See weather overviewHow to use our weather pages